Regional Weather Roundup
Issued by NWS

Home | Current Version | Previous Version | Graphics & Text | Print | Product List | Glossary On
Versions: 1 2 3 4 5 6 7 8 9 10 11 12 13 14 15 16 17 18 19 20 21 22 23 24 25 26 27 28 29 30 31 32 33 34 35 36 37 38 39 40 41 42 43 44 45 46 47 48 49 50
000
ASUS45 KTFX 280810
RWRMT
MONTANA REGIONAL WEATHER ROUNDUP
NATIONAL WEATHER SERVICE GREAT FALLS MT
200 AM MDT THU MAY 28 2015

NOTE: "FAIR" INDICATES FEW OR NO CLOUDS BELOW 12000 FEET WITH NO
SIGNIFICANT WEATHER AND/OR OBSTRUCTIONS TO VISIBILITY.

MTZ001>007-043-280900-
WEST OF THE DIVIDE

CITY           SKY/WX    TMP DP  RH WIND       PRES   REMARKS
KALISPELL      CLOUDY    48  46  93 CALM      30.03R
MISSOULA       CLOUDY    53  45  74 CALM      30.06S
BUTTE          CLOUDY    45  42  89 E5        30.10S
MULLAN PASS    PTCLDY    44  41  89 NW5       30.12S
DEER LODGE       N/A     48  45  87 CALM      30.12S
EUREKA           N/A     54  52  94 CALM      30.04R
HAMILTON         N/A     52  46  82 S5        30.07R
LIBBY            N/A     54  48  82 CALM      30.05F
PLAINS           N/A     51  47  86 CALM      30.05S
RONAN            N/A     51  48  89 CALM      30.08R
$$

MTZ008-052>055-280900-
SOUTHWEST MONTANA

CITY           SKY/WX    TMP DP  RH WIND       PRES   REMARKS
BOZEMAN        CLOUDY    50  47  89 S6        30.06S
DILLON         CLOUDY    48  43  82 S6        30.08S
W YELLOWSTONE  CLOUDY    41  39  93 S5        30.12S
THREE FORKS      N/A     52  29  41 CALM      30.04S
TWIN BRIDGES     N/A     49  43  80 E2        30.05F
$$

MTZ009-010-012-014-046-048-049-054-280900-
EAST SLOPES AND CENTRAL MONTANA

CITY           SKY/WX    TMP DP  RH WIND       PRES   REMARKS
CUT BANK       CLOUDY    49  46  90 W8        30.00R
GREAT FALLS    MOCLDY    49  46  90 SW6       29.99F
MALMSTROM AFB  MOCLDY    52  48  87 W3        29.99F
HELENA         CLOUDY    54  48  80 CALM      30.03R
CONRAD           N/A     46  46 100 N1        30.01F
$$

MTZ011-013-016-021-045-047-050-051-280900-
NORTH CENTRAL MONTANA

CITY           SKY/WX    TMP DP  RH WIND       PRES   REMARKS
HAVRE          PTCLDY    49  47  93 S3        29.94S
LEWISTOWN      PTCLDY    50  45  83 CALM      30.00S
CHINOOK          N/A     54  52  94 W3        29.93F
FORT BENTON      N/A     52  48  87 W5        29.97F
$$

MTZ017>020-022>027-061-062-280900-
NORTHEAST MONTANA

CITY           SKY/WX    TMP DP  RH WIND       PRES   REMARKS
GLASGOW        CLEAR     55  52  89 SE6       29.86F
JORDAN           N/A     51  50  96 W7        29.91F
SIDNEY         MOCLDY    52  50  93 CALM      29.89S
WOLF POINT     CLEAR     54  51  90 CALM      29.87F
MALTA            N/A     52  45  77 CALM      29.87F
PLENTYWOOD       N/A     54  54 100 E5        29.89F
POPLAR           N/A     52  52 100 NE5       29.88S
SCOBEY           N/A     53  47  80 E5        29.89S
$$

MTZ028>42-056>058-280900-
SOUTHCENTRAL AND SOUTHEAST MONTANA

CITY           SKY/WX    TMP DP  RH WIND       PRES   REMARKS
BAKER          MOCLDY    49  48  97 CALM      29.93S FOG
BILLINGS       PTCLDY    53  46  77 SW13      29.98F
LIVINGSTON     CLOUDY    52  45  77 W10       30.03S
MILES CITY     FOG       53  52  96 CALM      29.91F VSB 1
BIG TIMBER       N/A     48  43  81 SW8       30.02S
EKALAKA          N/A     54  49  83 SE1       29.93S
FORSYTH          N/A     54  54 100 SW5       29.92F
LAUREL           N/A     47  38  71 W1        29.97F
ROUNDUP          N/A     50  44  79 CALM      29.89F
$$

REGIONAL REPORTS...DAKOTAS

CITY           SKY/WX    TMP DP  RH WIND       PRES   REMARKS
WILLISTON      CLOUDY    58  54  86 SE5       29.88F
MINOT          CLOUDY    59  56  89 E9        29.90F
DICKINSON      FOG       52  50  93 W3        29.89F VSB 1/4
BEACH          FAIR      48  48 100 CALM      29.91F
CROSBY         CLOUDY    57  57 100 E10       29.90F
WATFORD CITY   CLOUDY    55  55 100 E7        29.87F
BISMARCK       MOCLDY    59  57  93 E7        29.90F
GRAND FORKS    CLOUDY    58  52  80 CALM      29.95S
FARGO          CLOUDY    65  54  67 E9        29.93F
BUFFALO SD       N/A     53  52  96 NW7       29.85F
RAPID CITY     MOCLDY    55  52  89 S6        29.93S
$$

REGIONAL REPORTS...WYOMING/IDAHO/WASHINGTON

CITY           SKY/WX    TMP DP  RH WIND       PRES   REMARKS
GILLETTE       CLOUDY    51  49  92 S3        29.95F
SHERIDAN       MOCLDY    51  49  92 SE5       29.98S
BUFFALO WY     MOCLDY    50  45  83 W10       30.01F
CODY           MOCLDY    48  45  87 CALM      30.03F
YELLOWSTONE LA   N/A     38  36  92 CALM      30.16F
IDAHO FALLS    CLOUDY    49  47  93 N3        30.10S
SALMON         CLOUDY    48  46  93 CALM      30.08S
BOISE          CLEAR     56  44  64 SE6       30.03R
SPOKANE        PTCLDY    57  49  74 S8        30.01S
$$

REGIONAL REPORTS...ALBERTA

CITY           SKY/WX    TMP DP  RH WIND       PRES   REMARKS
EDMONTON       LGT RAIN  50  43  76 N17G23    30.08R
CALGARY        MOCLDY    55  43  62 N16       30.04R
LETHBRIDGE     CLEAR     46  45  93 SW8       29.98R
MEDICINE HAT   PTCLDY    48  46  93 E3        29.93S
$$

REGIONAL REPORTS...SASKATCHEWAN

CITY           SKY/WX    TMP DP  RH WIND       PRES   REMARKS
SWIFT CURRENT  CLOUDY    55  46  71 N5        29.92F
REGINA         CLOUDY    54  48  82 N5        29.93F
SASKATOON      PTCLDY    54  39  58 S8        29.91S
$$



USA.gov is the U.S. government's official web portal to all federal, state and local government web resources and services.